Voltar ao catálogo

FENGYUN 1C DEB

AtivoSSO
NORAD 30315·DEBRIS·🇨🇳 China

Lançado May 10, 1999 de Taiyuan Satellite Launch Center

Loading…

Próximas Passagens (próximas 24 horas)

TLE

AtualizadoSource: Space-Track

Época: Sep 14, 2026, 11:31 UTC

1 30315U 99025AAC 26257.48036981  .00000353  00000-0  18706-3 0  9994
2 30315  98.6005 263.9505 0033956 283.2016 231.9813 14.19394319 16187

Acompanhe FENGYUN 1C DEB em tempo real com AllMySat

Download on the App Store